Home   Weather   Mühlhausen/Thüringen   Past weeks

Flag for Germany Past Weather in Mühlhausen/Thüringen, Thuringia, Germany — Yesterday and Last 2 Weeks

Now
37 °F

Passing clouds.


Feels Like: 32 °F
Forecast: 32 / 55 °F
Wind: 7 mph from West

Location: Erfurt-Bindersleben

Current Time: Apr 23, 2017 at 11:58:43 pm

Latest Report: Apr 23, 2017 at 11:20 pm


Visibility: N/A

Pressure: 30.18 "Hg

Humidity: 81%

Dew Point: 32 °F

Location of Mühlhausen/ThüringenLocation

Past Weather in Mühlhausen/Thüringen — Graph

°F

Mühlhausen/Thüringen Temperature Yesterday

Maximum temperature yesterday: 48 °F (at 12:20 am)
Minimum temperature yesterday: 37 °F (at 11:20 pm)
Average temperature yesterday: 44 °F

High & Low Weather Summary for the Past Weeks

 TemperatureHumidityPressure
High68 °F (Apr 10, 11:50 am)100% (Apr 8, 11:50 pm)30.57 "Hg (Apr 8, 11:50 pm)
Low27 °F (Apr 20, 5:50 am)43% (Apr 10, 11:50 am)29.80 "Hg (Apr 13, 4:20 am)
Average43 °F76%30.13 "Hg
* Reported Apr 8 10:20 pm — Apr 23 10:20 pm, Mühlhausen/Thüringen, Weather by CustomWeather, © 2017

Note: Actual official high and low records may vary slightly from our data, if they occured in-between our weather recording intervals... More about our weather records

Advertising

Mühlhausen/Thüringen Weather History for the Previous 24 Hours

Scroll right to see more
 ConditionsComfort  
Time TempWeatherWind HumidityBarometerVisibility
10:20 pm
Sun, Apr 23
41 °FClear.8 mph76%30.18 "Hg10 mi
9:50 pm41 °FClear.6 mph70%30.18 "Hg10 mi
8:50 pm43 °FPassing clouds.8 mph66%30.18 "HgN/A
8:20 pm43 °FScattered clouds.10 mph66%30.18 "HgN/A
7:50 pm43 °FScattered clouds.10 mph66%30.15 "HgN/A
7:20 pm43 °FPartly sunny.13 mph66%30.15 "HgN/A
6:50 pm45 °FBroken clouds.13 mph61%30.15 "HgN/A
6:20 pm45 °FPartly sunny.16 mph61%30.15 "HgN/A
5:50 pm48 °FPassing clouds.15 mph54%30.15 "HgN/A
5:20 pm46 °FScattered clouds.15 mph57%30.15 "HgN/A
4:50 pm45 °FBroken clouds.16 mph57%30.15 "HgN/A
4:20 pm46 °FScattered clouds.17 mph53%30.15 "HgN/A
3:50 pm46 °FScattered clouds.16 mph53%30.15 "HgN/A
3:20 pm46 °FSunny.16 mph53%30.15 "Hg10 mi
2:50 pm45 °FPassing clouds.14 mph53%30.15 "HgN/A
2:20 pm45 °FScattered clouds.18 mph53%30.15 "HgN/A
1:50 pm46 °FScattered clouds.15 mph50%30.15 "HgN/A
1:20 pm45 °FPartly sunny.17 mph53%30.18 "HgN/A
12:50 pm43 °FPartly sunny.15 mph61%30.18 "HgN/A
12:20 pm43 °FPartly sunny.15 mph66%30.18 "HgN/A
11:50 am43 °FScattered clouds.17 mph66%30.18 "HgN/A
11:20 am43 °FPartly sunny.14 mph66%30.18 "HgN/A
10:50 am41 °FPartly sunny.13 mph70%30.18 "HgN/A
10:20 am41 °FPartly sunny.13 mph76%30.18 "HgN/A
9:50 am39 °FPartly sunny.12 mph75%30.18 "HgN/A
9:20 am41 °FPartly sunny.15 mph76%30.18 "HgN/A
8:50 am39 °FPartly sunny.13 mph75%30.18 "HgN/A
8:20 am39 °FBroken clouds.12 mph75%30.18 "HgN/A
7:50 am37 °FPartly sunny.10 mph81%30.15 "HgN/A
7:20 am37 °FBroken clouds.9 mph81%30.15 "HgN/A
6:50 am37 °FSprinkles. Broken clouds.9 mph81%30.15 "HgN/A
6:20 am37 °FBroken clouds.9 mph81%30.15 "HgN/A
5:50 am36 °FPartly cloudy.10 mph87%30.15 "HgN/A
5:20 am36 °FPartly cloudy.8 mph87%30.15 "HgN/A
4:50 am34 °FPassing clouds.6 mph87%30.12 "HgN/A
4:20 am36 °FPassing clouds.9 mph81%30.12 "HgN/A
3:50 am36 °FPassing clouds.8 mph87%30.12 "HgN/A
3:20 am36 °FPassing clouds.9 mph81%30.12 "HgN/A
2:50 am34 °FPassing clouds.7 mph87%30.12 "HgN/A
2:20 am36 °FPassing clouds.9 mph81%30.12 "HgN/A
1:50 am37 °FPassing clouds.9 mph75%30.12 "HgN/A
1:20 am37 °FPassing clouds.10 mph75%30.15 "HgN/A
12:50 am36 °FPassing clouds.9 mph81%30.12 "HgN/A
12:20 am37 °FPassing clouds.10 mph75%30.12 "HgN/A
11:50 pm
Sat, Apr 22
37 °FPassing clouds.8 mph81%30.12 "HgN/A
11:20 pm37 °FClear.9 mph75%30.12 "Hg10 mi
Weather by CustomWeather, © 2017

See weather overviewHow to use our weather pages